owner,sensor,date,latitude,longitude,vertical_datum,sea_water_practical_salinity,qcFlag 
DISL,ioos:station:DISL:CATA:1,2008-09-01T00:00:00Z,30.3085,-88.1395,2.648,8.15,1111122 
DISL,ioos:station:DISL:CATA:1,2008-09-01T00:30:00Z,30.3085,-88.1395,2.641,8.17,1111122 
DISL,ioos:station:DISL:CATA:1,2008-09-01T01:00:00Z,30.3085,-88.1395,2.677,8.13,1111122 
DISL,ioos:station:DISL:CATA:1,2008-09-01T01:30:00Z,30.3085,-88.1395,2.677,8.23,1111122 
DISL,ioos:station:DISL:CATA:1,2008-09-01T02:00:00Z,30.3085,-88.1395,2.684,8.28,1111122 
DISL,ioos:station:DISL:CATA:1,2008-09-01T02:30:00Z,30.3085,-88.1395,2.669,8.27,1111122 
DISL,ioos:station:DISL:CATA:1,2008-09-01T03:00:00Z,30.3085,-88.1395,2.706,8.23,1111122 
DISL,ioos:station:DISL:CATA:1,2008-09-01T03:30:00Z,30.3085,-88.1395,2.778,8.1,1111122 
DISL,ioos:station:DISL:CATA:1,2008-09-01T04:00:00Z,30.3085,-88.1395,2.803,8.38,1111122 
DISL,ioos:station:DISL:CATA:1,2008-09-01T04:30:00Z,30.3085,-88.1395,2.848,8.15,1111122 
DISL,ioos:station:DISL:CATA:1,2008-09-01T05:00:00Z,30.3085,-88.1395,2.847,7.99,1111122 
DISL,ioos:station:DISL:CATA:1,2008-09-01T05:30:00Z,30.3085,-88.1395,2.874,8.01,1111122 
DISL,ioos:station:DISL:CATA:1,2008-09-01T06:00:00Z,30.3085,-88.1395,2.937,8.65,1111122 
DISL,ioos:station:DISL:CATA:1,2008-09-01T06:30:00Z,30.3085,-88.1395,3.009,9.14,1111122 
DISL,ioos:station:DISL:CATA:1,2008-09-01T07:00:00Z,30.3085,-88.1395,3.075,9.31,1111122 
DISL,ioos:station:DISL:CATA:1,2008-09-01T07:30:00Z,30.3085,-88.1395,3.082,9.08,1111122 
DISL,ioos:station:DISL:CATA:1,2008-09-01T08:00:00Z,30.3085,-88.1395,3.136,9.79,1111122 
DISL,ioos:station:DISL:CATA:1,2008-09-01T08:30:00Z,30.3085,-88.1395,3.196,10.34,1111122 
DISL,ioos:station:DISL:CATA:1,2008-09-01T09:00:00Z,30.3085,-88.1395,3.191,11.89,1111122 
DISL,ioos:station:DISL:CATA:1,2008-09-01T09:30:00Z,30.3085,-88.1395,3.219,12.76,1111122 
DISL,ioos:station:DISL:CATA:1,2008-09-01T10:00:00Z,30.3085,-88.1395,3.241,16.68,1111122 
DISL,ioos:station:DISL:CATA:1,2008-09-01T10:30:00Z,30.3085,-88.1395,3.262,15.46,1111122 
DISL,ioos:station:DISL:CATA:1,2008-09-01T11:00:00Z,30.3085,-88.1395,3.238,16.22,1111122 
DISL,ioos:station:DISL:CATA:1,2008-09-01T11:30:00Z,30.3085,-88.1395,3.319,23.06,1111122 
DISL,ioos:station:DISL:CATA:1,2008-09-01T12:00:00Z,30.3085,-88.1395,3.425,22.81,1111122 
DISL,ioos:station:DISL:CATA:1,2008-09-01T12:30:00Z,30.3085,-88.1395,3.433,23.68,1111122 
DISL,ioos:station:DISL:CATA:1,2008-09-01T13:00:00Z,30.3085,-88.1395,3.497,24.27,1111122 
DISL,ioos:station:DISL:CATA:1,2008-09-01T13:30:00Z,30.3085,-88.1395,3.64,24.92,1111122 
DISL,ioos:station:DISL:CATA:1,2008-09-01T14:00:00Z,30.3085,-88.1395,3.638,25.03,1111122 
DISL,ioos:station:DISL:CATA:1,2008-09-01T14:30:00Z,30.3085,-88.1395,3.621,23.98,1111122 
DISL,ioos:station:DISL:CATA:1,2008-09-01T15:00:00Z,30.3085,-88.1395,3.603,24.17,1111122 
DISL,ioos:station:DISL:CATA:1,2008-09-01T15:30:00Z,30.3085,-88.1395,3.642,25.38,1111122 
DISL,ioos:station:DISL:CATA:1,2008-09-01T16:00:00Z,30.3085,-88.1395,3.615,25.53,1111122 
DISL,ioos:station:DISL:CATA:1,2008-09-01T16:30:00Z,30.3085,-88.1395,3.532,25.45,1111122 
DISL,ioos:station:DISL:CATA:1,2008-09-01T17:00:00Z,30.3085,-88.1395,3.547,25.32,1111122 
DISL,ioos:station:DISL:CATA:1,2008-09-01T17:30:00Z,30.3085,-88.1395,3.578,24.29,1111122 
DISL,ioos:station:DISL:CATA:1,2008-09-01T18:00:00Z,30.3085,-88.1395,3.409,20.97,1111122 
DISL,ioos:station:DISL:CATA:1,2008-09-01T18:30:00Z,30.3085,-88.1395,3.417,19.78,1111122 
DISL,ioos:station:DISL:CATA:1,2008-09-01T19:00:00Z,30.3085,-88.1395,3.471,22.45,1111122 
DISL,ioos:station:DISL:CATA:1,2008-09-01T19:30:00Z,30.3085,-88.1395,3.406,26.89,1111122 
DISL,ioos:station:DISL:CATA:1,2008-09-01T20:00:00Z,30.3085,-88.1395,3.431,28.94,1111122 
DISL,ioos:station:DISL:CATA:1,2008-09-01T20:30:00Z,30.3085,-88.1395,3.446,28.57,1111122 
DISL,ioos:station:DISL:CATA:1,2008-09-01T21:00:00Z,30.3085,-88.1395,3.365,28.09,1111122 
DISL,ioos:station:DISL:CATA:1,2008-09-01T21:30:00Z,30.3085,-88.1395,3.277,28.15,1111122 
DISL,ioos:station:DISL:CATA:1,2008-09-01T22:00:00Z,30.3085,-88.1395,3.214,27.0,1111122 
DISL,ioos:station:DISL:CATA:1,2008-09-01T22:30:00Z,30.3085,-88.1395,3.231,27.42,1111122 
DISL,ioos:station:DISL:CATA:1,2008-09-01T23:00:00Z,30.3085,-88.1395,3.192,27.43,1111122 
DISL,ioos:station:DISL:CATA:1,2008-09-01T23:30:00Z,30.3085,-88.1395,3.147,27.63,1111122 
DISL,ioos:station:DISL:CATA:1,2008-09-02T00:00:00Z,30.3085,-88.1395,3.106,29.87,1111122 
DISL,ioos:station:DISL:CATA:1,2008-09-02T00:30:00Z,30.3085,-88.1395,3.139,31.58,1111122 
DISL,ioos:station:DISL:CATA:1,2008-09-02T01:00:00Z,30.3085,-88.1395,3.184,33.76,1111122 
DISL,ioos:station:DISL:CATA:1,2008-09-02T01:30:00Z,30.3085,-88.1395,3.231,33.81,1111122 
DISL,ioos:station:DISL:CATA:1,2008-09-02T02:00:00Z,30.3085,-88.1395,3.185,34.11,1111122 
DISL,ioos:station:DISL:CATA:1,2008-09-02T02:30:00Z,30.3085,-88.1395,3.235,33.68,1111122 
DISL,ioos:station:DISL:CATA:1,2008-09-02T03:00:00Z,30.3085,-88.1395,3.224,34.11,1111122 
DISL,ioos:station:DISL:CATA:1,2008-09-02T03:30:00Z,30.3085,-88.1395,3.214,33.91,1111122 
DISL,ioos:station:DISL:CATA:1,2008-09-02T04:00:00Z,30.3085,-88.1395,3.207,33.3,1111122 
DISL,ioos:station:DISL:CATA:1,2008-09-02T04:30:00Z,30.3085,-88.1395,3.2,32.91,1111122 
DISL,ioos:station:DISL:CATA:1,2008-09-02T05:00:00Z,30.3085,-88.1395,3.202,32.04,1111122 
DISL,ioos:station:DISL:CATA:1,2008-09-02T05:30:00Z,30.3085,-88.1395,3.198,31.55,1111122 
DISL,ioos:station:DISL:CATA:1,2008-09-02T06:00:00Z,30.3085,-88.1395,3.185,31.23,1111122 
DISL,ioos:station:DISL:CATA:1,2008-09-02T06:30:00Z,30.3085,-88.1395,3.176,31.55,1111122 
DISL,ioos:station:DISL:CATA:1,2008-09-02T07:00:00Z,30.3085,-88.1395,3.162,31.46,1111122 
DISL,ioos:station:DISL:CATA:1,2008-09-02T07:30:00Z,30.3085,-88.1395,3.149,31.68,1111122 
DISL,ioos:station:DISL:CATA:1,2008-09-02T08:00:00Z,30.3085,-88.1395,3.146,31.55,1111122 
DISL,ioos:station:DISL:CATA:1,2008-09-02T08:30:00Z,30.3085,-88.1395,3.117,31.44,1111122 
DISL,ioos:station:DISL:CATA:1,2008-09-02T09:00:00Z,30.3085,-88.1395,3.085,31.1,1111122 
DISL,ioos:station:DISL:CATA:1,2008-09-02T09:30:00Z,30.3085,-88.1395,3.049,30.9,1111122 
DISL,ioos:station:DISL:CATA:1,2008-09-02T10:00:00Z,30.3085,-88.1395,3.017,30.42,1111122 
DISL,ioos:station:DISL:CATA:1,2008-09-02T10:30:00Z,30.3085,-88.1395,2.99,31.26,1111122 
DISL,ioos:station:DISL:CATA:1,2008-09-02T11:00:00Z,30.3085,-88.1395,2.956,31.07,1111122 
DISL,ioos:station:DISL:CATA:1,2008-09-02T11:30:00Z,30.3085,-88.1395,2.919,31.38,1111122 
DISL,ioos:station:DISL:CATA:1,2008-09-02T12:00:00Z,30.3085,-88.1395,2.902,29.92,1111122 
DISL,ioos:station:DISL:CATA:1,2008-09-02T12:30:00Z,30.3085,-88.1395,2.876,28.75,1111122 
DISL,ioos:station:DISL:CATA:1,2008-09-02T13:00:00Z,30.3085,-88.1395,2.853,27.47,1111122 
DISL,ioos:station:DISL:CATA:1,2008-09-02T13:30:00Z,30.3085,-88.1395,2.839,26.79,1111122 
DISL,ioos:station:DISL:CATA:1,2008-09-02T14:00:00Z,30.3085,-88.1395,2.832,26.0,1111122 
DISL,ioos:station:DISL:CATA:1,2008-09-02T14:30:00Z,30.3085,-88.1395,2.827,25.66,1111122 
DISL,ioos:station:DISL:CATA:1,2008-09-02T15:00:00Z,30.3085,-88.1395,2.817,25.3,1111122 
DISL,ioos:station:DISL:CATA:1,2008-09-02T15:30:00Z,30.3085,-88.1395,2.816,24.25,1111122 
DISL,ioos:station:DISL:CATA:1,2008-09-02T16:00:00Z,30.3085,-88.1395,2.809,23.6,1111122 
DISL,ioos:station:DISL:CATA:1,2008-09-02T16:30:00Z,30.3085,-88.1395,2.797,22.94,1111122 
DISL,ioos:station:DISL:CATA:1,2008-09-02T17:00:00Z,30.3085,-88.1395,2.762,22.15,1111122 
DISL,ioos:station:DISL:CATA:1,2008-09-02T17:30:00Z,30.3085,-88.1395,2.745,22.04,1111122 
DISL,ioos:station:DISL:CATA:1,2008-09-02T18:00:00Z,30.3085,-88.1395,2.729,21.61,1111122 
DISL,ioos:station:DISL:CATA:1,2008-09-02T18:30:00Z,30.3085,-88.1395,2.69,21.28,1111122 
DISL,ioos:station:DISL:CATA:1,2008-09-02T19:00:00Z,30.3085,-88.1395,2.666,20.9,1111122 
DISL,ioos:station:DISL:CATA:1,2008-09-02T19:30:00Z,30.3085,-88.1395,2.695,20.41,1111122 
DISL,ioos:station:DISL:CATA:1,2008-09-02T20:00:00Z,30.3085,-88.1395,2.711,20.28,1111122 
DISL,ioos:station:DISL:CATA:1,2008-09-02T20:30:00Z,30.3085,-88.1395,2.724,20.13,1111122 
DISL,ioos:station:DISL:CATA:1,2008-09-02T21:00:00Z,30.3085,-88.1395,2.727,19.11,1111122 
DISL,ioos:station:DISL:CATA:1,2008-09-02T21:30:00Z,30.3085,-88.1395,2.719,18.77,1111122 
DISL,ioos:station:DISL:CATA:1,2008-09-02T22:00:00Z,30.3085,-88.1395,2.711,18.56,1111122 
DISL,ioos:station:DISL:CATA:1,2008-09-02T22:30:00Z,30.3085,-88.1395,2.714,17.35,1111122 
DISL,ioos:station:DISL:CATA:1,2008-09-02T23:00:00Z,30.3085,-88.1395,2.716,17.28,1111122 
DISL,ioos:station:DISL:CATA:1,2008-09-02T23:30:00Z,30.3085,-88.1395,2.707,17.14,1111122 
DISL,ioos:station:DISL:CATA:1,2008-09-03T00:00:00Z,30.3085,-88.1395,2.708,16.53,1111122 
DISL,ioos:station:DISL:CATA:1,2008-09-03T00:30:00Z,30.3085,-88.1395,2.708,17.34,1111122 
DISL,ioos:station:DISL:CATA:1,2008-09-03T01:00:00Z,30.3085,-88.1395,2.727,18.54,1111122 
DISL,ioos:station:DISL:CATA:1,2008-09-03T01:30:00Z,30.3085,-88.1395,2.749,18.93,1111122 
DISL,ioos:station:DISL:CATA:1,2008-09-03T02:00:00Z,30.3085,-88.1395,2.788,19.23,1111122 
DISL,ioos:station:DISL:CATA:1,2008-09-03T02:30:00Z,30.3085,-88.1395,2.805,19.29,1111122 
DISL,ioos:station:DISL:CATA:1,2008-09-03T03:00:00Z,30.3085,-88.1395,2.819,18.76,1111122 
DISL,ioos:station:DISL:CATA:1,2008-09-03T03:30:00Z,30.3085,-88.1395,2.836,18.69,1111122 
DISL,ioos:station:DISL:CATA:1,2008-09-03T04:00:00Z,30.3085,-88.1395,2.865,18.33,1111122 
DISL,ioos:station:DISL:CATA:1,2008-09-03T04:30:00Z,30.3085,-88.1395,2.87,17.83,1111122 
DISL,ioos:station:DISL:CATA:1,2008-09-03T05:00:00Z,30.3085,-88.1395,2.882,17.33,1111122 
DISL,ioos:station:DISL:CATA:1,2008-09-03T05:30:00Z,30.3085,-88.1395,2.889,16.99,1111122 
DISL,ioos:station:DISL:CATA:1,2008-09-03T06:00:00Z,30.3085,-88.1395,2.876,16.37,1111122 
DISL,ioos:station:DISL:CATA:1,2008-09-03T06:30:00Z,30.3085,-88.1395,2.875,16.33,1111122 
DISL,ioos:station:DISL:CATA:1,2008-09-03T07:00:00Z,30.3085,-88.1395,2.861,16.24,1111122 
DISL,ioos:station:DISL:CATA:1,2008-09-03T07:30:00Z,30.3085,-88.1395,2.869,16.24,1111122 
DISL,ioos:station:DISL:CATA:1,2008-09-03T08:00:00Z,30.3085,-88.1395,2.867,16.31,1111122 
DISL,ioos:station:DISL:CATA:1,2008-09-03T08:30:00Z,30.3085,-88.1395,2.862,16.14,1111122 
DISL,ioos:station:DISL:CATA:1,2008-09-03T09:00:00Z,30.3085,-88.1395,2.861,16.23,1111122 
DISL,ioos:station:DISL:CATA:1,2008-09-03T09:30:00Z,30.3085,-88.1395,2.843,16.31,1111122 
DISL,ioos:station:DISL:CATA:1,2008-09-03T10:00:00Z,30.3085,-88.1395,2.808,16.28,1111122 
DISL,ioos:station:DISL:CATA:1,2008-09-03T10:30:00Z,30.3085,-88.1395,2.79,16.07,1111122 
DISL,ioos:station:DISL:CATA:1,2008-09-03T11:00:00Z,30.3085,-88.1395,2.765,16.01,1111122 
DISL,ioos:station:DISL:CATA:1,2008-09-03T11:30:00Z,30.3085,-88.1395,2.743,15.81,1111122 
DISL,ioos:station:DISL:CATA:1,2008-09-03T12:00:00Z,30.3085,-88.1395,2.711,15.67,1111122 
DISL,ioos:station:DISL:CATA:1,2008-09-03T12:30:00Z,30.3085,-88.1395,2.683,15.33,1111122 
DISL,ioos:station:DISL:CATA:1,2008-09-03T13:00:00Z,30.3085,-88.1395,2.676,15.06,1111122 
DISL,ioos:station:DISL:CATA:1,2008-09-03T13:30:00Z,30.3085,-88.1395,2.683,14.81,1111122 
DISL,ioos:station:DISL:CATA:1,2008-09-03T14:00:00Z,30.3085,-88.1395,2.662,14.52,1111122 
DISL,ioos:station:DISL:CATA:1,2008-09-03T14:30:00Z,30.3085,-88.1395,2.664,14.28,1111122 
DISL,ioos:station:DISL:CATA:1,2008-09-03T15:00:00Z,30.3085,-88.1395,2.671,14.05,1111122 
DISL,ioos:station:DISL:CATA:1,2008-09-03T15:30:00Z,30.3085,-88.1395,2.671,13.68,1111122 
DISL,ioos:station:DISL:CATA:1,2008-09-03T16:00:00Z,30.3085,-88.1395,2.667,13.36,1111122 
DISL,ioos:station:DISL:CATA:1,2008-09-03T16:30:00Z,30.3085,-88.1395,2.646,13.29,1111122 
DISL,ioos:station:DISL:CATA:1,2008-09-03T17:00:00Z,30.3085,-88.1395,2.635,13.01,1111122 
DISL,ioos:station:DISL:CATA:1,2008-09-03T17:30:00Z,30.3085,-88.1395,2.649,12.79,1111122 
DISL,ioos:station:DISL:CATA:1,2008-09-03T18:00:00Z,30.3085,-88.1395,2.643,12.75,1111122 
DISL,ioos:station:DISL:CATA:1,2008-09-03T18:30:00Z,30.3085,-88.1395,2.65,12.69,1111122 
DISL,ioos:station:DISL:CATA:1,2008-09-03T19:00:00Z,30.3085,-88.1395,2.657,12.65,1111122 
DISL,ioos:station:DISL:CATA:1,2008-09-03T19:30:00Z,30.3085,-88.1395,2.676,12.45,1111122 
DISL,ioos:station:DISL:CATA:1,2008-09-03T20:00:00Z,30.3085,-88.1395,2.677,12.42,1111122 
DISL,ioos:station:DISL:CATA:1,2008-09-03T20:30:00Z,30.3085,-88.1395,2.675,12.23,1111122 
DISL,ioos:station:DISL:CATA:1,2008-09-03T21:00:00Z,30.3085,-88.1395,2.685,12.07,1111122 
DISL,ioos:station:DISL:CATA:1,2008-09-03T21:30:00Z,30.3085,-88.1395,2.689,12.12,1111122 
DISL,ioos:station:DISL:CATA:1,2008-09-03T22:00:00Z,30.3085,-88.1395,2.693,12.19,1111122 
DISL,ioos:station:DISL:CATA:1,2008-09-03T22:30:00Z,30.3085,-88.1395,2.701,12.19,1111122 
DISL,ioos:station:DISL:CATA:1,2008-09-03T23:00:00Z,30.3085,-88.1395,2.71,12.15,1111122 
DISL,ioos:station:DISL:CATA:1,2008-09-03T23:30:00Z,30.3085,-88.1395,2.731,12.09,1111122 
DISL,ioos:station:DISL:CATA:1,2008-09-04T00:00:00Z,30.3085,-88.1395,2.744,11.98,1111122 
DISL,ioos:station:DISL:CATA:1,2008-09-04T00:30:00Z,30.3085,-88.1395,2.756,11.86,1111122 
DISL,ioos:station:DISL:CATA:1,2008-09-04T01:00:00Z,30.3085,-88.1395,2.786,11.71,1111122 
DISL,ioos:station:DISL:CATA:1,2008-09-04T01:30:00Z,30.3085,-88.1395,2.808,11.56,1111122 
DISL,ioos:station:DISL:CATA:1,2008-09-04T02:00:00Z,30.3085,-88.1395,2.831,11.57,1111122 
DISL,ioos:station:DISL:CATA:1,2008-09-04T02:30:00Z,30.3085,-88.1395,2.853,11.56,1111122 
DISL,ioos:station:DISL:CATA:1,2008-09-04T03:00:00Z,30.3085,-88.1395,2.868,11.5,1111122 
DISL,ioos:station:DISL:CATA:1,2008-09-04T03:30:00Z,30.3085,-88.1395,2.896,11.41,1111122 
DISL,ioos:station:DISL:CATA:1,2008-09-04T04:00:00Z,30.3085,-88.1395,2.913,11.4,1111122 
DISL,ioos:station:DISL:CATA:1,2008-09-04T04:30:00Z,30.3085,-88.1395,2.921,11.4,1111122 
DISL,ioos:station:DISL:CATA:1,2008-09-04T05:00:00Z,30.3085,-88.1395,2.947,11.41,1111122 
DISL,ioos:station:DISL:CATA:1,2008-09-04T05:30:00Z,30.3085,-88.1395,2.942,11.44,1111122 
DISL,ioos:station:DISL:CATA:1,2008-09-04T06:00:00Z,30.3085,-88.1395,2.951,11.56,1111122 
DISL,ioos:station:DISL:CATA:1,2008-09-04T06:30:00Z,30.3085,-88.1395,2.957,11.61,1111122 
DISL,ioos:station:DISL:CATA:1,2008-09-04T07:00:00Z,30.3085,-88.1395,2.965,11.58,1111122 
DISL,ioos:station:DISL:CATA:1,2008-09-04T07:30:00Z,30.3085,-88.1395,2.955,11.82,1111122 
DISL,ioos:station:DISL:CATA:1,2008-09-04T08:00:00Z,30.3085,-88.1395,2.951,12.14,1111122 
DISL,ioos:station:DISL:CATA:1,2008-09-04T08:30:00Z,30.3085,-88.1395,2.938,12.08,1111122 
DISL,ioos:station:DISL:CATA:1,2008-09-04T09:00:00Z,30.3085,-88.1395,2.932,11.86,1111122 
DISL,ioos:station:DISL:CATA:1,2008-09-04T09:30:00Z,30.3085,-88.1395,2.912,11.67,1111122 
DISL,ioos:station:DISL:CATA:1,2008-09-04T10:00:00Z,30.3085,-88.1395,2.887,11.52,1111122 
DISL,ioos:station:DISL:CATA:1,2008-09-04T10:30:00Z,30.3085,-88.1395,2.853,11.5,1111122 
DISL,ioos:station:DISL:CATA:1,2008-09-04T11:00:00Z,30.3085,-88.1395,2.818,11.4,1111122 
DISL,ioos:station:DISL:CATA:1,2008-09-04T11:30:00Z,30.3085,-88.1395,2.79,11.39,1111122 
DISL,ioos:station:DISL:CATA:1,2008-09-04T12:00:00Z,30.3085,-88.1395,2.755,11.42,1111122 
DISL,ioos:station:DISL:CATA:1,2008-09-04T12:30:00Z,30.3085,-88.1395,2.737,11.5,1111122 
DISL,ioos:station:DISL:CATA:1,2008-09-04T13:00:00Z,30.3085,-88.1395,2.71,11.46,1111122 
DISL,ioos:station:DISL:CATA:1,2008-09-04T13:30:00Z,30.3085,-88.1395,2.68,11.48,1111122 
DISL,ioos:station:DISL:CATA:1,2008-09-04T14:00:00Z,30.3085,-88.1395,2.654,11.57,1111122 
DISL,ioos:station:DISL:CATA:1,2008-09-04T14:30:00Z,30.3085,-88.1395,2.646,11.72,1111122 
DISL,ioos:station:DISL:CATA:1,2008-09-04T15:00:00Z,30.3085,-88.1395,2.635,11.78,1111122 
DISL,ioos:station:DISL:CATA:1,2008-09-04T15:30:00Z,30.3085,-88.1395,2.618,11.98,1111122 
DISL,ioos:station:DISL:CATA:1,2008-09-04T16:00:00Z,30.3085,-88.1395,2.608,12.17,1111122 
DISL,ioos:station:DISL:CATA:1,2008-09-04T16:30:00Z,30.3085,-88.1395,2.597,12.27,1111122 
DISL,ioos:station:DISL:CATA:1,2008-09-04T17:00:00Z,30.3085,-88.1395,2.576,12.29,1111122 
DISL,ioos:station:DISL:CATA:1,2008-09-04T17:30:00Z,30.3085,-88.1395,2.561,12.26,1111122 
DISL,ioos:station:DISL:CATA:1,2008-09-04T18:00:00Z,30.3085,-88.1395,2.545,12.21,1111122 
DISL,ioos:station:DISL:CATA:1,2008-09-04T18:30:00Z,30.3085,-88.1395,2.544,12.15,1111122 
DISL,ioos:station:DISL:CATA:1,2008-09-04T19:00:00Z,30.3085,-88.1395,2.54,12.14,1111122 
DISL,ioos:station:DISL:CATA:1,2008-09-04T19:30:00Z,30.3085,-88.1395,2.535,12.09,1111122 
DISL,ioos:station:DISL:CATA:1,2008-09-04T20:00:00Z,30.3085,-88.1395,2.538,12.08,1111122 
DISL,ioos:station:DISL:CATA:1,2008-09-04T20:30:00Z,30.3085,-88.1395,2.541,12.1,1111122 
DISL,ioos:station:DISL:CATA:1,2008-09-04T21:00:00Z,30.3085,-88.1395,2.571,12.1,1111122 
DISL,ioos:station:DISL:CATA:1,2008-09-04T21:30:00Z,30.3085,-88.1395,2.58,12.13,1111122 
DISL,ioos:station:DISL:CATA:1,2008-09-04T22:00:00Z,30.3085,-88.1395,2.592,12.18,1111122 
DISL,ioos:station:DISL:CATA:1,2008-09-04T22:30:00Z,30.3085,-88.1395,2.606,12.27,1111122 
DISL,ioos:station:DISL:CATA:1,2008-09-04T23:00:00Z,30.3085,-88.1395,2.618,12.3,1111122 
DISL,ioos:station:DISL:CATA:1,2008-09-04T23:30:00Z,30.3085,-88.1395,2.62,12.28,1111122 
DISL,ioos:station:DISL:CATA:1,2008-09-05T00:00:00Z,30.3085,-88.1395,2.652,12.2,1111122 
DISL,ioos:station:DISL:CATA:1,2008-09-05T00:30:00Z,30.3085,-88.1395,2.686,12.17,1111122 
DISL,ioos:station:DISL:CATA:1,2008-09-05T01:00:00Z,30.3085,-88.1395,2.693,12.2,1111122 
DISL,ioos:station:DISL:CATA:1,2008-09-05T01:30:00Z,30.3085,-88.1395,2.698,12.21,1111122 
DISL,ioos:station:DISL:CATA:1,2008-09-05T02:00:00Z,30.3085,-88.1395,2.72,12.21,1111122 
DISL,ioos:station:DISL:CATA:1,2008-09-05T02:30:00Z,30.3085,-88.1395,2.743,13.76,1111122 
DISL,ioos:station:DISL:CATA:1,2008-09-05T03:00:00Z,30.3085,-88.1395,2.783,16.18,1111122 
DISL,ioos:station:DISL:CATA:1,2008-09-05T03:30:00Z,30.3085,-88.1395,2.811,16.52,1111122 
DISL,ioos:station:DISL:CATA:1,2008-09-05T04:00:00Z,30.3085,-88.1395,2.849,16.45,1111122 
DISL,ioos:station:DISL:CATA:1,2008-09-05T04:30:00Z,30.3085,-88.1395,2.876,14.36,1111122 
DISL,ioos:station:DISL:CATA:1,2008-09-05T05:00:00Z,30.3085,-88.1395,2.894,12.45,1111122 
DISL,ioos:station:DISL:CATA:1,2008-09-05T05:30:00Z,30.3085,-88.1395,2.919,12.5,1111122 
DISL,ioos:station:DISL:CATA:1,2008-09-05T06:00:00Z,30.3085,-88.1395,2.928,12.56,1111122 
DISL,ioos:station:DISL:CATA:1,2008-09-05T06:30:00Z,30.3085,-88.1395,2.946,12.61,1111122 
DISL,ioos:station:DISL:CATA:1,2008-09-05T07:00:00Z,30.3085,-88.1395,2.951,12.48,1111122 
DISL,ioos:station:DISL:CATA:1,2008-09-05T07:30:00Z,30.3085,-88.1395,2.953,12.62,1111122 
DISL,ioos:station:DISL:CATA:1,2008-09-05T08:00:00Z,30.3085,-88.1395,2.961,15.02,1111122 
DISL,ioos:station:DISL:CATA:1,2008-09-05T08:30:00Z,30.3085,-88.1395,2.947,17.0,1111122 
DISL,ioos:station:DISL:CATA:1,2008-09-05T09:00:00Z,30.3085,-88.1395,2.938,19.29,1111122 
DISL,ioos:station:DISL:CATA:1,2008-09-05T09:30:00Z,30.3085,-88.1395,2.922,20.32,1111122 
DISL,ioos:station:DISL:CATA:1,2008-09-05T10:00:00Z,30.3085,-88.1395,2.914,21.51,1111122 
DISL,ioos:station:DISL:CATA:1,2008-09-05T10:30:00Z,30.3085,-88.1395,2.884,21.62,1111122 
DISL,ioos:station:DISL:CATA:1,2008-09-05T11:00:00Z,30.3085,-88.1395,2.859,21.85,1111122 
DISL,ioos:station:DISL:CATA:1,2008-09-05T11:30:00Z,30.3085,-88.1395,2.836,21.83,1111122 
DISL,ioos:station:DISL:CATA:1,2008-09-05T12:00:00Z,30.3085,-88.1395,2.808,21.62,1111122 
DISL,ioos:station:DISL:CATA:1,2008-09-05T12:30:00Z,30.3085,-88.1395,2.784,18.65,1111122 
DISL,ioos:station:DISL:CATA:1,2008-09-05T13:00:00Z,30.3085,-88.1395,2.768,15.92,1111122 
DISL,ioos:station:DISL:CATA:1,2008-09-05T13:30:00Z,30.3085,-88.1395,2.737,15.18,1111122 
DISL,ioos:station:DISL:CATA:1,2008-09-05T14:00:00Z,30.3085,-88.1395,2.713,14.95,1111122 
DISL,ioos:station:DISL:CATA:1,2008-09-05T14:30:00Z,30.3085,-88.1395,2.677,15.64,1111122 
DISL,ioos:station:DISL:CATA:1,2008-09-05T15:00:00Z,30.3085,-88.1395,2.659,15.7,1111122 
DISL,ioos:station:DISL:CATA:1,2008-09-05T15:30:00Z,30.3085,-88.1395,2.63,15.75,1111122 
DISL,ioos:station:DISL:CATA:1,2008-09-05T16:00:00Z,30.3085,-88.1395,2.6,15.26,1111122 
DISL,ioos:station:DISL:CATA:1,2008-09-05T16:30:00Z,30.3085,-88.1395,2.566,15.16,1111122 
DISL,ioos:station:DISL:CATA:1,2008-09-05T17:00:00Z,30.3085,-88.1395,2.566,14.69,1111122 
DISL,ioos:station:DISL:CATA:1,2008-09-05T17:30:00Z,30.3085,-88.1395,2.542,14.29,1111122 
DISL,ioos:station:DISL:CATA:1,2008-09-05T18:00:00Z,30.3085,-88.1395,2.524,13.75,1111122 
DISL,ioos:station:DISL:CATA:1,2008-09-05T18:30:00Z,30.3085,-88.1395,2.522,13.44,1111122 
DISL,ioos:station:DISL:CATA:1,2008-09-05T19:00:00Z,30.3085,-88.1395,2.514,12.82,1111122 
DISL,ioos:station:DISL:CATA:1,2008-09-05T19:30:00Z,30.3085,-88.1395,2.508,12.71,1111122 
DISL,ioos:station:DISL:CATA:1,2008-09-05T20:00:00Z,30.3085,-88.1395,2.493,12.61,1111122 
DISL,ioos:station:DISL:CATA:1,2008-09-05T20:30:00Z,30.3085,-88.1395,2.487,12.59,1111122 
DISL,ioos:station:DISL:CATA:1,2008-09-05T21:00:00Z,30.3085,-88.1395,2.488,12.64,1111122 
DISL,ioos:station:DISL:CATA:1,2008-09-05T21:30:00Z,30.3085,-88.1395,2.499,12.65,1111122 
DISL,ioos:station:DISL:CATA:1,2008-09-05T22:00:00Z,30.3085,-88.1395,2.536,12.71,1111122 
DISL,ioos:station:DISL:CATA:1,2008-09-05T22:30:00Z,30.3085,-88.1395,2.57,12.85,1111122 
DISL,ioos:station:DISL:CATA:1,2008-09-05T23:00:00Z,30.3085,-88.1395,2.571,12.82,1111122 
DISL,ioos:station:DISL:CATA:1,2008-09-05T23:30:00Z,30.3085,-88.1395,2.574,12.72,1111122 
DISL,ioos:station:DISL:CATA:1,2008-09-06T00:00:00Z,30.3085,-88.1395,2.6,12.59,1111122 
DISL,ioos:station:DISL:CATA:1,2008-09-06T00:30:00Z,30.3085,-88.1395,2.622,12.7,1111122 
DISL,ioos:station:DISL:CATA:1,2008-09-06T01:00:00Z,30.3085,-88.1395,2.645,12.77,1111122 
DISL,ioos:station:DISL:CATA:1,2008-09-06T01:30:00Z,30.3085,-88.1395,2.672,12.91,1111122 
DISL,ioos:station:DISL:CATA:1,2008-09-06T02:00:00Z,30.3085,-88.1395,2.699,13.11,1111122 
DISL,ioos:station:DISL:CATA:1,2008-09-06T02:30:00Z,30.3085,-88.1395,2.745,13.24,1111122 
DISL,ioos:station:DISL:CATA:1,2008-09-06T03:00:00Z,30.3085,-88.1395,2.775,13.37,1111122 
DISL,ioos:station:DISL:CATA:1,2008-09-06T03:30:00Z,30.3085,-88.1395,2.8,13.6,1111122 
DISL,ioos:station:DISL:CATA:1,2008-09-06T04:00:00Z,30.3085,-88.1395,2.827,13.43,1111122 
DISL,ioos:station:DISL:CATA:1,2008-09-06T04:30:00Z,30.3085,-88.1395,2.859,13.57,1111122 
DISL,ioos:station:DISL:CATA:1,2008-09-06T05:00:00Z,30.3085,-88.1395,2.861,13.8,1111122 
DISL,ioos:station:DISL:CATA:1,2008-09-06T05:30:00Z,30.3085,-88.1395,2.88,14.59,1111122 
DISL,ioos:station:DISL:CATA:1,2008-09-06T06:00:00Z,30.3085,-88.1395,2.903,15.72,1111122 
DISL,ioos:station:DISL:CATA:1,2008-09-06T06:30:00Z,30.3085,-88.1395,2.893,16.41,1111122 
DISL,ioos:station:DISL:CATA:1,2008-09-06T07:00:00Z,30.3085,-88.1395,2.896,19.62,1111122 
DISL,ioos:station:DISL:CATA:1,2008-09-06T07:30:00Z,30.3085,-88.1395,2.878,22.47,1111122 
DISL,ioos:station:DISL:CATA:1,2008-09-06T08:00:00Z,30.3085,-88.1395,2.882,23.72,1111122 
DISL,ioos:station:DISL:CATA:1,2008-09-06T08:30:00Z,30.3085,-88.1395,2.899,24.34,1111122 
DISL,ioos:station:DISL:CATA:1,2008-09-06T09:00:00Z,30.3085,-88.1395,2.876,24.62,1111122 
DISL,ioos:station:DISL:CATA:1,2008-09-06T09:30:00Z,30.3085,-88.1395,2.863,25.32,1111122 
DISL,ioos:station:DISL:CATA:1,2008-09-06T10:00:00Z,30.3085,-88.1395,2.844,26.3,1111122 
DISL,ioos:station:DISL:CATA:1,2008-09-06T10:30:00Z,30.3085,-88.1395,2.823,26.01,1111122 
DISL,ioos:station:DISL:CATA:1,2008-09-06T11:00:00Z,30.3085,-88.1395,2.804,26.02,1111122 
DISL,ioos:station:DISL:CATA:1,2008-09-06T11:30:00Z,30.3085,-88.1395,2.766,24.6,1111122 
DISL,ioos:station:DISL:CATA:1,2008-09-06T12:00:00Z,30.3085,-88.1395,2.751,15.82,1111122 
DISL,ioos:station:DISL:CATA:1,2008-09-06T12:30:00Z,30.3085,-88.1395,2.729,16.28,1111122 
DISL,ioos:station:DISL:CATA:1,2008-09-06T13:00:00Z,30.3085,-88.1395,2.703,15.94,1111122 
DISL,ioos:station:DISL:CATA:1,2008-09-06T13:30:00Z,30.3085,-88.1395,2.684,15.13,1111122 
DISL,ioos:station:DISL:CATA:1,2008-09-06T14:00:00Z,30.3085,-88.1395,2.657,14.46,1111122 